Showing default

SNUGLITE, 43784

Orbit data source: Space-Track

SNUGLITE, 43784 is a payload satellite owned by SNU (KR) in SSO that was launched on Mon, 03 Dec 2018 UTC via an FALCON 9 launch vehicle from the Air Force Western Test Range (AFWTR). Payload-class satellites include a variety of spacecraft equipped with specific instruments for various scientific and technological missions. These include communications satellites like Starlink; space stations such as the ISS; scientific satellites like the Hubble; Earth observation satellites from companies like Planet Labs, Umbra, and HawkEye 360; GPS; miniature CubeSats for education and research; and military/defense satellites.

Loading next visibility...
Identifier
43784, 2018-099AC
Orbit
SSO
Country
Flag of UnknownUnknown / SKOR
Related business
Manufacturer
SNU
Mission
Operational Amateur Technology
Bus & Motor
CUBESAT 2U, Unknown motor
Mass
2 kg wet, 2 kg dry
Launch date (UTC)
2018-12-03 (7 years ago)
Launch vehicle
FALCON 9
Launch site
Air Force Western Test Range (AFWTR)
Object type
Payload
Rocket body
Debris
Shape & HBR
Box + 1 Rod, 0.2 m
Radar Cross Section
0.025 m², Small (<0.1 m²)

Expand to show TLE details & history
Last TLE update: 13 hours ago

TLE from 13 hours ago
0 SNUGLITE
1 43784U 18099AC  26034.40661972  .00013615  00000-0  56679-3 0  9995
2 43784  97.4078  90.1771 0004045  58.7410 301.4223 15.23856539392923
Epoch: 2026-02-03T09:45Z
TLE epoch observation values (Epoch: 2026-02-03T09:45:31.943Z)
Latitude
-0.00004°
Longitude
170.206°
Altitude
495.868 km
Speed
7.618 km/s
True Right ascension
06h 00m 42s
True Declination
0° 00' 00"
Sunlit
Object was in full shadow at epoch
Visualization orbit readout
Latitude
Unknown
Longitude
Unknown
Altitude
Unknown
Speed
Unknown
Apparent Right ascension
Unknown
Apparent Declination
Unknown
Sunlit
N/A
Visualization observer readout
Local Sidereal Time
00:41:20
Azimuth
Unknown
Elevation
Unknown
Doppler factor
Unknown
Orbital elements
Apogee altitude
493.961 km
Perigee altitude
488.403 km
Semi-major axis
6,869.319 km
Eccentricity
0.0004
Inclination
97.4078°
RAAN
90.1771°
Arg. of periapsis
58.741°
True anomaly
301.38273°
Mean anomaly
301.4223°
Eccentric anomaly
301.40252°
Mean motion
3.81217 °/min
Orbital period
94.43 mins
BSTAR
0.00056679
Loading maneuver chart data...
Computing Atmospheric mass density...

Documentation

Showing up to 5 results
|